CZ-6A DEB, 54901

Orbit data source: Space-Track

CZ-6A DEB, 54901 is space debris in SSO originally from a launch on Fri, 11 Nov 2022 UTC launched from the Taiyaun Space Center, China (TSC). Debris objects in space refer to the collection of defunct objects orbiting the Earth. Examples of debris include non-operational satellites, rocket bodies, and fragments generated from explosions, collisions, or faulty payload assembly.

Loading next visibility...
Identifier
54901, 2022-151QN
Orbit
SSO
Country
Flag of CNCN / PRC
Related business
Manufacturer
SAST
Mission
Spacecraft
Bus & Motor
Unknown
Mass
Unknown
Launch date (UTC)
2022-11-11 (3 years ago)
Launch vehicle
Unknown
Launch site
Taiyaun Space Center, China (TSC)
Object type
Payload
Rocket body
Debris
Shape & HBR
Unknown shape, 0.1 m
Radar Cross Section
Small (<0.1 m²)

Expand to show TLE details & history
Last TLE update: 14 hours ago

TLE from 14 hours ago
0 CZ-6A DEB
1 54901U 22151QN  25352.12326017  .00005279  00000-0  11434-2 0  9997
2 54901  98.6364  36.6116 0095374 149.1621 211.5226 14.55818626162871
Epoch: 2025-12-18T02:57Z
TLE epoch observation values (Epoch: 2025-12-18T02:57:29.678Z)
Latitude
-0.00007°
Longitude
-94.74533°
Altitude
767.46 km
Speed
7.44 km/s
True Right ascension
02h 26m 26s
True Declination
0° 00' 00"
Sunlit
Object was in full shadow at epoch
Visualization orbit readout
Latitude
Unknown
Longitude
Unknown
Altitude
Unknown
Speed
Unknown
Apparent Right ascension
Unknown
Apparent Declination
Unknown
Sunlit
N/A
Visualization observer readout
Local Sidereal Time
16:16:37
Azimuth
Unknown
Elevation
Unknown
Doppler factor
Unknown
Orbital elements
Apogee altitude
771.358 km
Perigee altitude
636.271 km
Semi-major axis
7,081.952 km
Eccentricity
0.00954
Inclination
98.6364°
RAAN
36.6116°
Arg. of periapsis
149.1621°
True anomaly
210.95695°
Mean anomaly
211.5226°
Eccentric anomaly
211.2392°
Mean motion
3.64178 °/min
Orbital period
98.85 mins
BSTAR
0.0011434
Loading maneuver chart data...
Computing Atmospheric mass density...
Loading historical data...
Loading historical data...
Loading historical data...
Loading historical data...
Loading historical data...
Loading historical data...
Loading historical data...

Documentation

Showing up to 5 results
|